Flag for Ghana Weather past 2 weeks in Kumasi, Ghana

Now
79 °F

Sunny.


Feels Like: 82 °F
Forecast: 74 / 92 °F
Wind: 6 mph from West

Location: Accra Airport

Current Time: Mar 27, 2015 at 7:31:38 AM

Latest Report: Mar 27, 2015 at 6:00 AM


Visibility: 10 mi

Pressure: 29.92 "Hg

Humidity: 89%

Dew point: 75 °F

Location of KumasiLocation

Historic Weather in Kumasi — Graph

°F

Kumasi temperature yesterday

Maximum temperature yesterday: 90 °F (at 11:56 AM)
Minimum temperature yesterday: 75 °F (at 4:00 AM)
Average temperature yesterday: 82 °F

Past Weeks' High & Low Weather Summary

 TemperatureHumidityPressure
High93 °F (Mar 15, 12:00 PM)100% (Mar 16, 12:01 AM)29.98 "Hg (Mar 16, 12:01 AM)
Low70 °F (Mar 16, 12:01 AM)53% (Mar 19, 1:00 PM)29.68 "Hg (Mar 15, 3:00 PM)
Average83 °F81%29.80 "Hg
* Reported Mar 12 6:00 AM — Mar 27 6:00 AM, Kumasi, Weather by CustomWeather, © 2015

Note: Actual official high and low records may vary slightly from our data, if they occured in-between our weather recording intervals... More about our weather records

Advertising

Kumasi weather history for previous 24 hours

 ConditionsComfort  
Time TempWeatherWind HumidityBarometerVisibility
6:00 AM
Fri, Mar 27
79 °FSunny.6 mph89%29.92 "Hg10 mi
4:57 AM79 °FPassing clouds.7 mph94%29.92 "HgN/A
4:00 AM81 °FPassing clouds.8 mph89%29.89 "HgN/A
3:00 AM81 °FPassing clouds.7 mph89%29.89 "HgN/A
1:00 AM82 °FOvercast.7 mph84%29.92 "HgN/A
12:00 AM82 °FPartly cloudy.8 mph84%29.92 "HgN/A
11:00 PM
Thu, Mar 26
82 °FPassing clouds.9 mph84%29.92 "HgN/A
9:56 PM82 °FPassing clouds.10 mph84%29.92 "HgN/A
8:56 PM82 °FPassing clouds.9 mph84%29.92 "HgN/A
8:00 PM82 °FPassing clouds.10 mph84%29.89 "HgN/A
6:54 PM82 °FPassing clouds.10 mph89%29.86 "HgN/A
5:53 PM82 °FPassing clouds.12 mph84%29.86 "HgN/A
5:00 PM84 °FPassing clouds.12 mph79%29.83 "HgN/A
4:00 PM86 °FPassing clouds.13 mph75%29.80 "HgN/A
3:00 PM86 °FPassing clouds.12 mph70%29.80 "HgN/A
2:00 PM86 °FPassing clouds.12 mph75%29.86 "HgN/A
1:00 PM86 °FPartly sunny.10 mph79%29.89 "HgN/A
11:56 AM90 °FPartly sunny.7 mph63%29.89 "HgN/A
11:00 AM86 °FPassing clouds.5 mph70%29.92 "HgN/A
10:00 AM84 °FPassing clouds.7 mph74%29.92 "HgN/A
8:55 AM82 °FSunny.7 mph79%29.92 "Hg10 mi
7:55 AM81 °FSunny.6 mph89%29.83 "Hg10 mi
7:00 AM77 °FSunny.5 mph94%29.92 "Hg10 mi
Weather by CustomWeather, © 2015

See weather overviewHow to use our weather pages